[[{"header":{"parameterUnit":"m.s-1","parameterCategory":1,"la1":30.2991,"la2":30.254,"lo1":-89.0895,"lo2":-89.0444,"dy":0.0017,"dx":0.0017,"nx":28,"ny":28,"refTime":"2024-06-12T09:00:00:Z","depth":0,"parameterNumber":2,"parameterNumberName":"U-component_of_WINDS"},"data":[0,0,0,0,0,0,0,0,0,0,0,0,0,0,0,0,0,0,0,0,0,0,0,0,0,0,0,0,0,0,0,0,0,0,0,0,0,0,0,0,0,0,0,0,0,0,0,0,0,0,0,0,0,0,0,0,0,0,-0.3912,-0.3911,0,-0.3877,-0.3877,-0.3876,-0.3798,-0.3797,-0.3795,-0.3793,-0.3762,-0.3762,-0.3763,0,0,0,0,0,0,0,0,0,0,0,0,0,-0.3914,-0.3915,-0.3912,-0.3911,-0.3911,-0.3877,-0.3877,-0.3876,-0.3799,-0.3797,-0.3795,-0.3793,-0.3761,-0.3762,-0.3763,0,0,0,0,0,0,0,0,0,0,0,0,0,-0.39,-0.3915,-0.3912,-0.3868,-0.3864,-0.3877,-0.3877,-0.3876,-0.3799,-0.3796,-0.3794,-0.3792,-0.3761,-0.3762,-0.3763,-0.3818,0,0,-0.3766,-0.3767,0,0,0,0,0,0,0,0,-0.3901,-0.39,-0.3875,-0.3871,-0.3866,-0.3839,-0.3866,-0.3857,-0.38,-0.3824,-0.3793,-0.3791,-0.379,-0.3788,-0.3787,-0.3816,-0.3815,-0.3766,-0.3767,-0.3767,-0.3768,0,0,0,0,0,0,0,-0.3902,-0.3901,-0.3898,-0.3875,-0.3869,-0.3851,-0.3847,-0.3864,-0.3821,-0.3821,-0.3816,-0.3812,-0.3787,-0.3786,-0.3786,-0.3814,-0.3766,-0.3767,-0.3768,-0.3768,-0.3889,-0.3891,0,0,0,0,0,0,-0.3909,-0.3902,-0.3899,-0.3897,-0.3878,-0.3853,-0.3848,-0.3851,-0.382,-0.3813,-0.3814,-0.3809,-0.3786,-0.3785,-0.3784,-0.3848,-0.3767,-0.3768,-0.3769,-0.3886,-0.3889,-0.3892,0,0,0,0,0,0,-0.3909,-0.3909,-0.3901,-0.3898,-0.3896,-0.3856,-0.3859,-0.3851,-0.385,-0.3815,-0.3807,-0.3822,-0.3784,-0.3783,-0.381,-0.3846,-0.3769,-0.3769,-0.3883,-0.3887,-0.3891,-0.3975,0,0,0,0,0,0,-0.391,-0.391,-0.3929,-0.3899,-0.3896,-0.3926,-0.3861,-0.3852,-0.3852,-0.3844,-0.382,-0.3813,-0.3782,-0.3809,-0.3811,-0.3846,-0.377,-0.388,-0.3885,-0.3889,-0.3969,-0.3981,-0.3992,0,0,0,0,0,-0.391,-0.3955,-0.3931,-0.3931,-0.3919,-0.3928,-0.3927,-0.3889,-0.3855,-0.3875,-0.3853,-0.3814,-0.3841,-0.3813,-0.3814,-0.385,-0.3877,-0.3883,-0.3889,-0.3964,-0.3979,-0.3991,0,0,0,0,0,0,-0.3991,-0.395,-0.3923,-0.3959,-0.3948,-0.3915,-0.3939,-0.3906,-0.3904,-0.3897,-0.3851,-0.3846,-0.388,-0.3867,-0.3836,-0.3902,-0.3853,-0.386,-0.3909,-0.3923,-0.3935,-0.3938,-0.3771,0,0,0,0,0,-0.4013,-0.4023,-0.3987,-0.4022,-0.4018,-0.398,-0.3982,-0.3954,-0.394,-0.3936,-0.3915,-0.3905,-0.3911,-0.3916,-0.392,-0.3966,-0.3961,-0.3991,-0.4003,-0.4012,-0.4019,-0.4045,-0.4058,-0.3911,-0.3911,-0.3911,0,0,-0.4059,-0.4038,-0.4047,-0.4038,-0.4026,-0.4038,-0.3976,-0.3992,-0.4001,-0.3938,-0.3963,-0.3948,-0.3933,-0.3971,-0.3986,-0.3961,-0.4058,-0.402,-0.4028,-0.4029,-0.4052,-0.4066,-0.4078,-0.3915,-0.3915,-0.3914,0,0,-0.415,-0.4134,-0.4162,-0.4151,-0.4133,-0.4108,-0.4115,-0.4087,-0.4074,-0.4098,-0.4052,-0.4062,-0.4073,-0.4066,-0.4063,-0.4151,-0.4117,-0.4154,-0.4215,-0.424,-0.4252,-0.4262,-0.4295,-0.4308,-0.416,-0.416,-0.4161,0,-0.421,-0.4225,-0.4182,-0.42,-0.4199,-0.4141,-0.4171,-0.4162,-0.4147,-0.4148,-0.412,-0.4133,-0.4119,-0.4155,-0.4177,-0.4176,-0.4184,-0.4157,-0.4253,-0.4263,-0.4272,-0.4303,-0.4316,-0.4165,-0.4165,-0.4164,-0.4164,0,-0.4301,-0.4312,-0.4338,-0.4324,-0.4325,-0.4349,-0.431,-0.4317,-0.4288,-0.4266,-0.4292,-0.4273,-0.4273,-0.4279,-0.4251,-0.4311,-0.4296,-0.4261,-0.4212,-0.4291,-0.432,-0.4332,-0.4172,-0.417,-0.4169,-0.4168,0,0,-0.4443,-0.4404,-0.4414,-0.4408,-0.4384,-0.4393,-0.4415,-0.4413,-0.4421,-0.4412,-0.4431,-0.4442,-0.4409,-0.4407,-0.4378,-0.44,-0.4473,-0.4362,-0.4361,-0.4385,-0.4541,-0.4569,-0.4584,-0.4449,-0.4451,-0.4453,-0.4543,0,-0.4529,-0.4564,-0.4525,-0.4569,-0.458,-0.4526,-0.4545,-0.4534,-0.4514,-0.4522,-0.45,-0.4509,-0.4464,-0.4463,-0.4482,-0.446,-0.4504,-0.4453,-0.4469,-0.447,-0.4476,-0.4598,-0.4628,-0.4713,-0.4553,-0.4555,-0.4557,0,-0.4635,-0.4631,-0.4675,-0.4649,-0.4652,-0.4671,-0.4667,-0.4674,-0.4661,-0.4645,-0.4642,-0.4607,-0.4628,-0.4579,-0.4609,-0.4575,-0.4579,-0.457,-0.4572,-0.4574,-0.452,-0.4606,-0.4739,-0.4753,-0.4574,-0.4572,-0.4571,0,-0.4737,-0.4742,-0.4769,-0.4765,-0.4735,-0.475,-0.4738,-0.4722,-0.4724,-0.4721,-0.4722,-0.4722,-0.4723,-0.4724,-0.4691,-0.4657,-0.4726,-0.4673,-0.4715,-0.4717,-0.4734,-0.4734,-0.4873,-0.4733,-0.4733,-0.4733,-0.4732,0,-0.4838,-0.4868,-0.4815,-0.4832,-0.4865,-0.482,-0.4854,-0.4837,-0.4823,-0.4837,-0.479,-0.4805,-0.4759,-0.4769,-0.4743,-0.4773,-0.4773,-0.4763,-0.4756,-0.4768,-0.477,-0.4772,-0.4766,-0.4736,-0.4735,-0.4735,-0.4734,0,-0.4958,-0.4923,-0.495,-0.4919,-0.4912,-0.4938,-0.4912,-0.4928,-0.4904,-0.4923,-0.4925,-0.4889,-0.4899,-0.4865,-0.4869,-0.4852,-0.4897,-0.488,-0.4902,-0.4898,-0.4943,-0.494,-0.5089,-0.5108,-0.4955,-0.4956,-0.4957,0,-0.5027,-0.5048,-0.502,-0.5025,-0.5016,-0.5026,-0.5027,-0.4985,-0.4989,-0.4975,-0.4993,-0.4998,-0.5001,-0.5019,-0.4995,-0.4998,-0.4982,-0.5034,-0.4982,-0.4994,-0.4985,-0.4985,-0.4988,-0.5045,-0.5047,-0.5049,-0.505,0,-0.5152,-0.5134,-0.5138,-0.5136,-0.5139,-0.5135,-0.5129,-0.5137,-0.5091,-0.5098,-0.5107,-0.5109,-0.5113,-0.512,-0.5118,-0.5108,-0.5073,-0.5066,-0.5077,-0.5091,-0.5104,-0.51,-0.4934,-0.5064,-0.5062,-0.5061,-0.506,-0.506,-0.525,-0.5267,-0.525,-0.5256,-0.5247,-0.5242,-0.5255,-0.5233,-0.524,-0.5239,-0.5214,-0.5228,-0.5215,-0.5209,-0.5202,-0.5214,-0.519,-0.5205,-0.5209,-0.5214,-0.5223,-0.51,-0.5213,-0.5213,-0.5213,-0.5212,-0.5212,0,-0.5375,-0.5361,-0.5367,-0.5359,-0.5365,-0.5328,-0.532,-0.5327,-0.534,-0.533,-0.5333,-0.5345,-0.5351,-0.5327,-0.5331,-0.5345,-0.5329,-0.5348,-0.5347,-0.5346,-0.5242,-0.5234,-0.5361,-0.5361,-0.5361,-0.5361,-0.5361,-0.5361,-0.5441,-0.5469,-0.5449,-0.5473,-0.5458,-0.5472,-0.547,-0.5466,-0.5458,-0.5472,-0.5477,-0.5461,-0.5446,-0.5448,-0.5453,-0.5446,-0.5451,-0.5476,-0.5463,-0.5367,-0.5353,-0.5339,-0.5331,-0.5476,-0.5476,-0.5566,-0.5567,-0.5567]},{"header":{"parameterUnit":"m.s-1","parameterCategory":1,"la1":30.2991,"la2":30.254,"lo1":-89.0895,"lo2":-89.0444,"dy":0.0017,"dx":0.0017,"nx":28,"ny":28,"refTime":"2024-06-12T09:00:00:Z","depth":0,"parameterNumber":3,"parameterNumberName":"V-component_of_WINDS"},"data":[0,0,0,0,0,0,0,0,0,0,0,0,0,0,0,0,0,0,0,0,0,0,0,0,0,0,0,0,0,0,0,0,0,0,0,0,0,0,0,0,0,0,0,0,0,0,0,0,0,0,0,0,0,0,0,0,0,0,-0.3303,-0.3303,0,-0.329,-0.329,-0.329,-0.3278,-0.3278,-0.3278,-0.3278,-0.3264,-0.3264,-0.3263,0,0,0,0,0,0,0,0,0,0,0,0,0,-0.3317,-0.3317,-0.3303,-0.3303,-0.3303,-0.329,-0.329,-0.329,-0.3278,-0.3278,-0.3278,-0.3278,-0.3264,-0.3264,-0.3263,0,0,0,0,0,0,0,0,0,0,0,0,0,-0.3308,-0.3317,-0.3303,-0.3295,-0.3295,-0.329,-0.329,-0.329,-0.3278,-0.3278,-0.3278,-0.3278,-0.3264,-0.3264,-0.3263,-0.3265,0,0,-0.3262,-0.3262,0,0,0,0,0,0,0,0,-0.3309,-0.3308,-0.3297,-0.3296,-0.3295,-0.3286,-0.329,-0.3281,-0.3278,-0.3284,-0.3278,-0.3278,-0.3271,-0.327,-0.3268,-0.3265,-0.3264,-0.3262,-0.3262,-0.3262,-0.3262,0,0,0,0,0,0,0,-0.331,-0.3308,-0.3298,-0.3296,-0.3295,-0.3293,-0.3291,-0.3288,-0.3279,-0.3284,-0.3283,-0.3282,-0.3271,-0.3269,-0.3268,-0.3264,-0.3262,-0.3262,-0.3262,-0.3262,-0.3262,-0.3263,0,0,0,0,0,0,-0.3311,-0.3309,-0.3298,-0.3297,-0.3302,-0.3292,-0.3291,-0.3289,-0.3279,-0.3277,-0.3282,-0.3281,-0.3269,-0.3268,-0.3267,-0.327,-0.3262,-0.3262,-0.3261,-0.3262,-0.3262,-0.3263,0,0,0,0,0,0,-0.3312,-0.3311,-0.3299,-0.3303,-0.3301,-0.3292,-0.329,-0.3289,-0.3287,-0.3278,-0.3276,-0.3281,-0.3269,-0.3268,-0.3266,-0.3269,-0.3261,-0.3261,-0.3262,-0.3262,-0.3263,-0.3274,0,0,0,0,0,0,-0.3312,-0.3311,-0.3311,-0.3303,-0.3301,-0.3298,-0.329,-0.3288,-0.3286,-0.3285,-0.3277,-0.3275,-0.3269,-0.3267,-0.3266,-0.3269,-0.3261,-0.3262,-0.3262,-0.3262,-0.3274,-0.3275,-0.3276,0,0,0,0,0,-0.3313,-0.3314,-0.3311,-0.331,-0.3302,-0.3298,-0.3297,-0.329,-0.3286,-0.3287,-0.3281,-0.3275,-0.3269,-0.3267,-0.3266,-0.3268,-0.3261,-0.3262,-0.3262,-0.3273,-0.3275,-0.3276,0,0,0,0,0,0,-0.3322,-0.3313,-0.331,-0.3309,-0.3304,-0.3296,-0.3296,-0.3292,-0.3288,-0.3287,-0.3278,-0.3276,-0.3276,-0.3272,-0.3269,-0.327,-0.3264,-0.3265,-0.3273,-0.3274,-0.3276,-0.3277,-0.326,0,0,0,0,0,-0.3325,-0.3323,-0.3315,-0.3315,-0.3313,-0.3305,-0.3303,-0.3298,-0.3293,-0.3291,-0.3285,-0.3281,-0.3278,-0.3276,-0.3272,-0.3273,-0.3271,-0.3274,-0.3275,-0.3277,-0.3277,-0.3278,-0.328,-0.3264,-0.3264,-0.3264,0,0,-0.3329,-0.3324,-0.3323,-0.3316,-0.3312,-0.3311,-0.3303,-0.3301,-0.33,-0.3291,-0.3289,-0.3285,-0.3279,-0.3279,-0.3278,-0.3275,-0.3281,-0.3277,-0.3278,-0.3278,-0.3279,-0.3281,-0.3282,-0.3265,-0.3265,-0.3265,0,0,-0.3336,-0.3331,-0.3331,-0.3328,-0.3322,-0.3317,-0.3318,-0.331,-0.3307,-0.3306,-0.3299,-0.3297,-0.3292,-0.3288,-0.3286,-0.3293,-0.3288,-0.3292,-0.3299,-0.3301,-0.3302,-0.3303,-0.3307,-0.3308,-0.3293,-0.3293,-0.3293,0,-0.3341,-0.3339,-0.3332,-0.3331,-0.3329,-0.3321,-0.3321,-0.3318,-0.3311,-0.331,-0.3307,-0.3301,-0.3297,-0.3296,-0.3298,-0.3296,-0.3296,-0.3293,-0.3302,-0.3303,-0.3304,-0.3308,-0.3309,-0.3293,-0.3293,-0.3293,-0.3293,0,-0.3347,-0.3345,-0.3346,-0.3341,-0.3339,-0.3338,-0.3332,-0.333,-0.3326,-0.3322,-0.3321,-0.3315,-0.3311,-0.3311,-0.3306,-0.331,-0.3309,-0.3304,-0.3298,-0.3306,-0.331,-0.3311,-0.3294,-0.3294,-0.3294,-0.3294,0,0,-0.3358,-0.3351,-0.3351,-0.3349,-0.3343,-0.3342,-0.3342,-0.3338,-0.3338,-0.3334,-0.3334,-0.333,-0.3327,-0.3324,-0.3319,-0.332,-0.3328,-0.3315,-0.3315,-0.3319,-0.3333,-0.3337,-0.3339,-0.3324,-0.3324,-0.3324,-0.3334,0,-0.3365,-0.3364,-0.3359,-0.336,-0.3359,-0.3352,-0.3352,-0.3349,-0.3345,-0.3343,-0.3339,-0.3337,-0.3332,-0.333,-0.3331,-0.3326,-0.333,-0.3326,-0.3325,-0.3325,-0.3327,-0.334,-0.3344,-0.3353,-0.3335,-0.3335,-0.3335,0,-0.3372,-0.337,-0.3371,-0.3366,-0.3366,-0.3366,-0.3363,-0.3362,-0.3358,-0.3355,-0.3353,-0.3348,-0.3348,-0.3342,-0.3343,-0.3339,-0.3339,-0.3337,-0.3337,-0.3337,-0.3331,-0.3341,-0.3356,-0.3358,-0.3337,-0.3337,-0.3337,0,-0.3382,-0.3379,-0.3379,-0.3378,-0.3372,-0.3373,-0.337,-0.3366,-0.3365,-0.3363,-0.3362,-0.336,-0.3358,-0.3357,-0.3351,-0.3348,-0.3353,-0.3346,-0.3351,-0.3351,-0.3352,-0.3353,-0.3368,-0.3351,-0.3351,-0.3351,-0.3351,0,-0.3389,-0.3391,-0.3384,-0.3384,-0.3386,-0.338,-0.3382,-0.3379,-0.3375,-0.3376,-0.3369,-0.3369,-0.3362,-0.3361,-0.3357,-0.3359,-0.3358,-0.3356,-0.3355,-0.3357,-0.3358,-0.3357,-0.3356,-0.3351,-0.3351,-0.3351,-0.3351,0,-0.34,-0.3396,-0.3396,-0.3391,-0.339,-0.3392,-0.3388,-0.3388,-0.3385,-0.3385,-0.3385,-0.3379,-0.3378,-0.3373,-0.337,-0.3368,-0.3371,-0.3369,-0.3373,-0.3372,-0.3378,-0.3378,-0.3394,-0.3396,-0.3377,-0.3377,-0.3377,0,-0.3406,-0.3407,-0.3403,-0.3403,-0.3401,-0.3401,-0.34,-0.3394,-0.3394,-0.3391,-0.3392,-0.3391,-0.339,-0.3389,-0.3385,-0.3383,-0.3381,-0.3387,-0.3381,-0.3384,-0.3383,-0.3383,-0.3384,-0.3388,-0.3389,-0.3389,-0.3389,0,-0.3416,-0.3415,-0.3414,-0.3413,-0.3413,-0.3411,-0.341,-0.341,-0.3404,-0.3404,-0.3404,-0.3403,-0.3402,-0.3401,-0.3399,-0.3397,-0.3392,-0.3391,-0.3392,-0.3395,-0.3397,-0.3397,-0.3377,-0.3391,-0.339,-0.339,-0.339,-0.339,-0.3425,-0.3426,-0.3424,-0.3424,-0.3423,-0.3422,-0.3423,-0.342,-0.3419,-0.3418,-0.3415,-0.3416,-0.3413,-0.3411,-0.3409,-0.341,-0.3407,-0.3408,-0.3408,-0.3409,-0.3411,-0.3397,-0.3409,-0.3409,-0.3409,-0.3409,-0.3409,0,-0.3436,-0.3435,-0.3435,-0.3434,-0.3434,-0.343,-0.3429,-0.3429,-0.343,-0.3428,-0.3428,-0.3428,-0.3428,-0.3425,-0.3424,-0.3426,-0.3424,-0.3426,-0.3426,-0.3426,-0.3413,-0.3412,-0.3427,-0.3427,-0.3427,-0.3427,-0.3427,-0.3427,-0.3442,-0.3444,-0.3443,-0.3445,-0.3443,-0.3444,-0.3444,-0.3443,-0.3442,-0.3443,-0.3444,-0.3441,-0.3439,-0.3439,-0.3439,-0.3438,-0.3439,-0.3442,-0.344,-0.3428,-0.3426,-0.3425,-0.3424,-0.3442,-0.3442,-0.3453,-0.3453,-0.3453]}]]